Home   Weather   Chișinău   Past weeks

Flag for Moldova Past Weather in Chișinău, Moldova — Yesterday and Last 2 Weeks

Now
19 °F

Clear.


Feels Like: 14 °F
Forecast: 18 / 36 °F
Wind: 3 mph from Northwest

Location: Chisinau International Airport

Current Time: Dec 5, 2016 at 6:36:04 am

Latest Report: Dec 5, 2016 at 6:00 am


Visibility: 10 mi

Pressure: 30.54 "Hg

Humidity: 79%

Dew Point: 14 °F

Location of ChișinăuLocation

Past Weather in Chișinău — Graph

°F

Chișinău Temperature Yesterday

Maximum temperature yesterday: 34 °F (at 11:00 am)
Minimum temperature yesterday: 25 °F (at 8:00 pm)
Average temperature yesterday: 29 °F

High & Low Weather Summary for the Past Weeks

 TemperatureHumidityPressure
High45 °F (Nov 20, 11:30 am)100% (Nov 23, 6:00 pm)30.54 "Hg (Nov 23, 6:00 pm)
Low19 °F (Nov 30, 7:00 am)47% (Nov 30, 3:30 pm)29.36 "Hg (Dec 2, 1:30 pm)
Average33 °F83%30.15 "Hg
* Reported Nov 20 5:00 am — Dec 5 5:30 am, Chișinău, Weather by CustomWeather, © 2016

Note: Actual official high and low records may vary slightly from our data, if they occured in-between our weather recording intervals... More about our weather records

Advertising

Chișinău Weather History for the Previous 24 Hours

Scroll right to see more
 ConditionsComfort  
Time TempWeatherWind HumidityBarometerVisibility
5:30 am
Mon, Dec 5
19 °FClear.8 mph79%30.54 "Hg10 mi
5:00 am19 °FClear.6 mph79%30.54 "Hg10 mi
4:30 am19 °FClear.3 mph79%30.54 "Hg10 mi
4:00 am21 °FPassing clouds.3 mph80%30.54 "HgN/A
3:30 am21 °FClear.No wind80%30.51 "Hg10 mi
3:00 am21 °FClear.5 mph80%30.51 "Hg10 mi
2:30 am23 °FClear.8 mph74%30.51 "Hg10 mi
2:00 am25 °FClear.7 mph74%30.51 "Hg10 mi
1:30 am25 °FClear.12 mph74%30.48 "Hg10 mi
1:00 am25 °FClear.8 mph74%30.48 "Hg10 mi
12:30 am25 °FClear.8 mph74%30.48 "Hg10 mi
12:00 am23 °FClear.9 mph80%30.48 "Hg10 mi
11:30 pm
Sun, Dec 4
25 °FClear.8 mph74%30.48 "Hg10 mi
11:00 pm25 °FClear.5 mph74%30.45 "Hg10 mi
10:30 pm25 °FClear.9 mph74%30.45 "Hg10 mi
10:00 pm25 °FClear.9 mph74%30.45 "Hg10 mi
9:30 pm25 °FClear.9 mph74%30.45 "Hg10 mi
9:00 pm27 °FClear.8 mph69%30.42 "Hg10 mi
8:30 pm27 °FPassing clouds.8 mph74%30.42 "HgN/A
8:00 pm25 °FPassing clouds.8 mph80%30.42 "HgN/A
7:30 pm27 °FPassing clouds.8 mph80%30.42 "HgN/A
7:00 pm28 °FPassing clouds.8 mph74%30.39 "HgN/A
6:30 pm28 °FPassing clouds.7 mph74%30.39 "HgN/A
6:00 pm28 °FPassing clouds.6 mph74%30.39 "HgN/A
5:30 pm30 °FClear.7 mph69%30.36 "Hg10 mi
5:00 pm32 °FPassing clouds.10 mph64%30.36 "HgN/A
4:30 pm32 °FPassing clouds.13 mph64%30.33 "HgN/A
4:00 pm32 °FScattered clouds.13 mph69%30.33 "HgN/A
3:30 pm32 °FPartly sunny.14 mph75%30.33 "HgN/A
3:00 pm32 °FSnow flurries. Broken clouds.21 mph75%30.30 "HgN/A
2:30 pm34 °FScattered clouds.18 mph70%30.30 "HgN/A
2:00 pm34 °FScattered clouds.18 mph70%30.30 "HgN/A
1:30 pm34 °FPartly sunny.16 mph70%30.30 "HgN/A
1:00 pm34 °FPartly sunny.17 mph70%30.30 "HgN/A
12:30 pm34 °FScattered clouds.20 mph70%30.27 "HgN/A
12:00 pm34 °FScattered clouds.21 mph70%30.27 "HgN/A
11:30 am34 °FPartly sunny.14 mph65%30.27 "HgN/A
11:00 am34 °FPartly sunny.13 mph65%30.27 "HgN/A
10:30 am32 °FPassing clouds.14 mph64%30.30 "HgN/A
10:00 am32 °FPassing clouds.14 mph69%30.27 "HgN/A
9:30 am30 °FPassing clouds.13 mph69%30.27 "HgN/A
9:00 am28 °FPassing clouds.12 mph74%30.27 "HgN/A
8:30 am28 °FPassing clouds.10 mph80%30.27 "HgN/A
8:00 am27 °FScattered clouds.12 mph86%30.27 "HgN/A
7:30 am27 °FPassing clouds.12 mph80%30.24 "HgN/A
7:00 am27 °FPassing clouds.10 mph80%30.24 "HgN/A
6:30 am28 °FPassing clouds.12 mph80%30.24 "HgN/A
6:00 am27 °FPassing clouds.12 mph80%30.24 "HgN/A
Weather by CustomWeather, © 2016

See weather overviewHow to use our weather pages